Tracking 30166 objects as of 22-Jan-2025
HD Live streaming from Space Station
objects crossing your sky now

STARLINK-11485

Track STARLINK-11485 now!
10-day predictions
STARLINK-11485 is classified as:


NORAD ID: 62229
Int'l Code: 2024-231M
Perigee: 365.4 km
Apogee: 368.2 km
Inclination: 53.2 °
Period: 91.7 minutes
Semi major axis: 6737 km
RCS: Unknown
Launch date: December 5, 2024
Source: United States (US)
Launch site: AIR FORCE WESTERN TEST RANGE (AFWTR)
Your satellite tracking list
Your tracking list is empty




NASA's NSSDC Master Catalog

Two Line Element Set (TLE):
1 62229U 24231M   25022.13593061  .00003143  00000-0  30779-4 0  9993
2 62229  53.1601 329.9833 0002051  91.4271 268.6982 15.69730683  8511
Source of the keplerian elements: AFSPC